Find Starlink 30809

NORAD ID: 58183 Int'l Des: 2023-167 Owner: SPXS Country: US Constellation: starlink operational
LEOCIRCULAR

現在のビュー

3D地球を読み込み中...

About Starlink 30809

Starlink 30809 (NORAD 58183) is a starlink constellation satellite (v2 mini) launched Oct 30, 2023 by SPXS of US. It operates in LEO, CIRCULAR orbit with a mass of 730.00 kg.

Starlink 30809について

説明を読み込み中...

次回通過

Passes for default location (London). Set your location on the main map for personalized predictions.

高度履歴

Loading altitude history...

軌道要素

1 58183U 23167J 26170.05613681 -.00000603 00000-0 -12386-4 0 9995
2 58183 43.0042 291.2908 0001648 262.5204 97.5461 15.27577663146485
Epoch: Jun 19, 2026 • Age: 8 hours

現在のステータス

高度 494.6 km
速度 7.62 km/s
衛星直下点 -41.37°S, 179.01°E
打ち上げ日 Oct 30, 2023
運用期間 2.6 years
タイプ internet

技術仕様

分類 Payload
質量 730.00 kg
乾燥質量 700.00 kg
総質量 730.00 kg
長さ 0.30 m
直径 4.10 m
スパン 29.00 m
形状 Box + pan
製造者 SPXS
バスタイプ Starlink V2M
フェーズステータス In Orbit
所有者/国 SPXS/US

Most Searched